Location: Unspecified
(41.1637°N, 24.2901°E)
Time: 09:16:06
(UTC+02:00)

ISS - Visible Passes

Search period start: 23 April 2024 00:00
Search period end: 03 May 2024 00:00
Orbit: 411 x 418 km, 51.6° (Epoch: 23 April)

Date Brightness Start Highest point End Pass type
(mag) Time Alt. Az. Time Alt. Az. Time Alt. Az.
23 Apr -1.3 03:11:17 16° ESE 03:11:17 16° ESE 03:12:49 10° E visible
23 Apr -3.5 04:44:09 13° WSW 04:47:00 56° NNW 04:50:17 10° NE visible
24 Apr -3.9 03:57:01 45° SW 03:57:56 84° SE 04:01:16 10° NE visible
25 Apr -2.4 03:09:46 35° E 03:09:46 35° E 03:12:04 10° ENE visible
25 Apr -2.2 04:42:46 10° W 04:45:40 27° NNW 04:48:35 10° NE visible
26 Apr -0.6 02:22:24 11° ENE 02:22:24 11° ENE 02:22:36 10° ENE visible
26 Apr -2.8 03:55:14 29° WNW 03:56:22 39° NNW 03:59:31 10° NE visible
27 Apr -2.9 03:07:45 48° NNE 03:07:45 48° NNE 03:10:21 10° NE visible
27 Apr -1.5 04:41:54 10° WNW 04:44:14 17° NNW 04:46:34 10° NNE visible
28 Apr -0.9 02:20:10 17° ENE 02:20:10 17° ENE 02:21:03 10° ENE visible
28 Apr -1.8 03:52:59 15° WNW 03:54:42 22° NNW 03:57:23 10° NNE visible
29 Apr -2.2 03:05:18 29° NNW 03:05:18 29° NNW 03:08:08 10° NE visible
29 Apr -1.1 04:40:47 10° NW 04:42:38 14° N 04:44:29 10° NNE visible
30 Apr -1.1 02:17:31 20° NE 02:17:31 20° NE 02:18:49 10° NE visible
30 Apr -1.1 03:50:49 10° NW 03:52:55 15° N 03:55:01 10° NNE visible
01 May -1.5 03:02:28 17° NNW 03:03:09 18° NNW 03:05:36 10° NNE visible
01 May -1.0 04:38:59 10° NNW 04:40:48 14° N 04:42:38 10° NE visible
02 May -1.1 02:14:32 20° N 02:14:32 20° N 02:16:09 10° NE visible
02 May -0.9 03:49:10 10° NNW 03:50:57 14° N 03:52:43 10° NNE visible
